| time (UTC) | temp F | wind direction | speed knots | gust knots | rain 1hr in | rain 24hr in | rain mn in | humidity % | barometer mb |
| 20260906123517 | 70 | 23 | 0.9 | 1.7 | 0.00 | 0.00 | 0.00 | 91 | 1019.0 |
| 20260906122517 | 69 | 23 | 0.9 | 3.5 | 0.00 | 0.00 | 0.00 | 93 | 1019.1 |
| 20260906121517 | 68 | 23 | 0.9 | 3.5 | 0.00 | 0.00 | 0.00 | 94 | 1018.8 |
| 20260906120517 | 68 | 23 | 0.9 | 3.5 | 0.00 | 0.00 | 0.00 | 94 | 1018.6 |
| 20260906115517 | 67 | 0.0 | 2.6 | 0.00 | 0.00 | 0.00 | 94 | 1018.6 | |
| 20260906114517 | 67 | 0.0 | 2.6 | 0.00 | 0.00 | 0.00 | 94 | 1018.3 | |
| 20260906113518 | 67 | 23 | 0.9 | 2.6 | 0.00 | 0.00 | 0.00 | 94 | 1018.2 |
| 20260906112517 | 67 | 23 | 0.9 | 1.7 | 0.00 | 0.00 | 0.00 | 94 | 1018.0 |
| 20260906111517 | 67 | 338 | 0.9 | 4.3 | 0.00 | 0.00 | 0.00 | 94 | 1017.9 |
| 20260906110517 | 68 | 23 | 0.9 | 4.3 | 0.00 | 0.00 | 0.00 | 94 | 1017.8 |
| 20260906105537 | 68 | 0 | 1.7 | 4.3 | 0.00 | 0.00 | 0.00 | 94 | 1017.9 |
| 20260906104537 | 68 | 0 | 0.9 | 2.6 | 0.00 | 0.00 | 0.00 | 93 | 1017.7 |
| 20260906103517 | 68 | 23 | 0.9 | 4.3 | 0.00 | 0.00 | 0.00 | 93 | 1017.7 |
| 20260906102517 | 68 | 23 | 0.9 | 4.3 | 0.00 | 0.00 | 0.00 | 93 | 1017.5 |
| 20260906101517 | 68 | 338 | 0.9 | 3.5 | 0.00 | 0.00 | 0.00 | 93 | 1017.5 |
| 20260906100518 | 68 | 23 | 0.9 | 2.6 | 0.00 | 0.00 | 0.00 | 93 | 1017.6 |
| 20260906095557 | 68 | 23 | 0.9 | 2.6 | 0.00 | 0.00 | 0.00 | 93 | 1017.4 |
| 20260906094517 | 68 | 23 | 0.9 | 2.6 | 0.00 | 0.00 | 0.00 | 93 | 1017.3 |
| 20260906093517 | 69 | 0 | 0.9 | 2.6 | 0.00 | 0.00 | 0.00 | 93 | 1017.3 |
| 20260906092517 | 69 | 338 | 1.7 | 3.5 | 0.00 | 0.00 | 0.00 | 92 | 1017.3 |
| 20260906091517 | 69 | 23 | 1.7 | 3.5 | 0.00 | 0.00 | 0.00 | 92 | 1017.4 |
| 20260906090517 | 69 | 23 | 0.9 | 3.5 | 0.00 | 0.02 | 0.00 | 92 | 1017.3 |
| 20260906085517 | 69 | 23 | 0.9 | 3.5 | 0.00 | 0.02 | 0.00 | 92 | 1017.2 |
| 20260906084516 | 69 | 23 | 1.7 | 4.3 | 0.00 | 0.02 | 0.00 | 92 | 1017.2 |
| 20260906083516 | 70 | 23 | 0.9 | 4.3 | 0.00 | 0.02 | 0.00 | 91 | 1017.2 |
| 20260906082516 | 70 | 0 | 1.7 | 3.5 | 0.00 | 0.02 | 0.00 | 91 | 1017.2 |
| 20260906081536 | 70 | 23 | 0.9 | 3.5 | 0.00 | 0.02 | 0.00 | 91 | 1017.3 |
| 20260906080517 | 70 | 23 | 0.9 | 3.5 | 0.00 | 0.02 | 0.00 | 91 | 1017.3 |
| 20260906075516 | 70 | 23 | 0.9 | 1.7 | 0.00 | 0.02 | 0.00 | 90 | 1017.4 |
| 20260906074545 | 70 | 23 | 0.9 | 2.6 | 0.00 | 0.02 | 0.00 | 90 | 1017.4 |
| 20260906073540 | 70 | 68 | 1.7 | 3.5 | 0.00 | 0.02 | 0.00 | 89 | 1017.4 |
| 20260906072516 | 70 | 23 | 0.9 | 3.5 | 0.00 | 0.02 | 0.00 | 89 | 1017.4 |
| 20260906071516 | 71 | 23 | 1.7 | 4.3 | 0.00 | 0.02 | 0.00 | 89 | 1017.5 |
| 20260906070516 | 71 | 45 | 1.7 | 3.5 | 0.00 | 0.02 | 0.00 | 88 | 1017.6 |
| 20260906065537 | 71 | 23 | 0.9 | 4.3 | 0.00 | 0.02 | 0.00 | 88 | 1017.6 |
| 20260906064516 | 71 | 0.0 | 1.7 | 0.00 | 0.02 | 0.00 | 87 | 1017.6 | |
| 20260906063516 | 71 | 23 | 1.7 | 4.3 | 0.00 | 0.02 | 0.00 | 87 | 1017.5 |
| 20260906062517 | 72 | 23 | 1.7 | 3.5 | 0.00 | 0.02 | 0.00 | 87 | 1017.6 |
| 20260906061516 | 72 | 0.0 | 1.7 | 0.00 | 0.02 | 0.00 | 87 | 1017.7 | |
| 20260906060517 | 72 | 23 | 1.7 | 3.5 | 0.00 | 0.02 | 0.00 | 87 | 1017.6 |
| 20260906055516 | 72 | 23 | 1.7 | 3.5 | 0.00 | 0.02 | 0.00 | 87 | 1017.5 |
| 20260906054517 | 72 | 23 | 1.7 | 4.3 | 0.00 | 0.02 | 0.00 | 86 | 1017.3 |
| 20260906053517 | 72 | 23 | 1.7 | 3.5 | 0.00 | 0.02 | 0.00 | 86 | 1017.3 |
| 20260906052517 | 72 | 68 | 0.9 | 3.5 | 0.00 | 0.02 | 0.00 | 86 | 1017.4 |
| 20260906051536 | 72 | 90 | 0.9 | 3.5 | 0.00 | 0.02 | 0.00 | 85 | 1017.3 |
| 20260906050516 | 72 | 68 | 0.9 | 3.5 | 0.00 | 0.02 | 0.00 | 85 | 1017.1 |
| 20260906045517 | 73 | 23 | 0.9 | 2.6 | 0.00 | 0.02 | 0.02 | 85 | 1017.1 |
| 20260906044517 | 73 | 23 | 1.7 | 3.5 | 0.00 | 0.02 | 0.02 | 84 | 1017.2 |
| 20260906043517 | 73 | 23 | 1.7 | 2.6 | 0.00 | 0.02 | 0.02 | 84 | 1016.9 |
| 20260906042517 | 73 | 45 | 1.7 | 4.3 | 0.00 | 0.02 | 0.02 | 83 | 1016.8 |
| 20260906041517 | 73 | 23 | 1.7 | 3.5 | 0.00 | 0.02 | 0.02 | 82 | 1016.6 |
| 20260906040517 | 73 | 23 | 1.7 | 3.5 | 0.00 | 0.02 | 0.02 | 82 | 1016.6 |
| 20260906035517 | 73 | 45 | 1.7 | 4.3 | 0.00 | 0.02 | 0.02 | 82 | 1016.3 |
| 20260906034517 | 73 | 0 | 0.9 | 4.3 | 0.00 | 0.02 | 0.02 | 82 | 1016.3 |
| 20260906033517 | 73 | 113 | 1.7 | 4.3 | 0.00 | 0.02 | 0.02 | 82 | 1016.3 |
| 20260906032537 | 73 | 113 | 1.7 | 7.8 | 0.00 | 0.02 | 0.02 | 82 | 1016.3 |
| 20260906031516 | 73 | 90 | 3.5 | 10.4 | 0.00 | 0.02 | 0.02 | 82 | 1016.3 |
| 20260906030517 | 73 | 113 | 1.7 | 6.1 | 0.00 | 0.02 | 0.02 | 82 | 1016.2 |
| 20260906025517 | 73 | 90 | 2.6 | 5.2 | 0.00 | 0.02 | 0.02 | 82 | 1016.1 |
| 20260906024537 | 73 | 90 | 4.3 | 8.7 | 0.00 | 0.02 | 0.02 | 82 | 1016.2 |
| 20260906023537 | 73 | 23 | 1.7 | 5.2 | 0.00 | 0.02 | 0.02 | 82 | 1016.1 |
| 20260906022516 | 73 | 90 | 2.6 | 7.0 | 0.00 | 0.02 | 0.02 | 83 | 1016.1 |
| 20260906021517 | 73 | 68 | 2.6 | 7.0 | 0.00 | 0.02 | 0.02 | 83 | 1016.1 |
| 20260906020537 | 73 | 90 | 1.7 | 8.7 | 0.00 | 0.02 | 0.02 | 83 | 1016.1 |
| 20260906015517 | 73 | 45 | 2.6 | 7.0 | 0.00 | 0.02 | 0.02 | 82 | 1016.0 |
| 20260906014516 | 73 | 23 | 2.6 | 8.7 | 0.00 | 0.02 | 0.02 | 82 | 1016.2 |
| 20260906013537 | 73 | 23 | 2.6 | 6.1 | 0.00 | 0.02 | 0.02 | 82 | 1016.2 |
| 20260906012517 | 73 | 0 | 2.6 | 6.1 | 0.00 | 0.02 | 0.02 | 82 | 1016.0 |
| 20260906011518 | 73 | 23 | 2.6 | 5.2 | 0.00 | 0.02 | 0.02 | 82 | 1016.0 |
| 20260906010517 | 73 | 23 | 2.6 | 8.7 | 0.00 | 0.02 | 0.02 | 83 | 1016.0 |
| 20260906005519 | 73 | 90 | 1.7 | 5.2 | 0.00 | 0.02 | 0.02 | 83 | 1016.0 |
| 20260906004516 | 74 | 68 | 1.7 | 7.0 | 0.00 | 0.02 | 0.02 | 82 | 1015.9 |
| 20260906003517 | 74 | 68 | 1.7 | 7.8 | 0.00 | 0.02 | 0.02 | 81 | 1015.8 |
| 20260906002520 | 75 | 45 | 3.5 | 8.7 | 0.00 | 0.02 | 0.02 | 80 | 1015.6 |
| 20260906001517 | 76 | 23 | 2.6 | 7.0 | 0.00 | 0.02 | 0.02 | 79 | 1015.5 |
| 20260906000557 | 77 | 45 | 2.6 | 6.1 | 0.00 | 0.02 | 0.02 | 78 | 1015.3 |
| 20260905235536 | 77 | 90 | 3.5 | 9.6 | 0.00 | 0.02 | 0.02 | 77 | 1015.0 |
| 20260905234517 | 78 | 23 | 1.7 | 7.0 | 0.00 | 0.02 | 0.02 | 76 | 1014.8 |
| 20260905233516 | 79 | 45 | 2.6 | 7.0 | 0.00 | 0.02 | 0.02 | 75 | 1014.9 |
| 20260905232537 | 80 | 45 | 4.3 | 8.7 | 0.00 | 0.02 | 0.02 | 73 | 1014.9 |
| 20260905231517 | 80 | 23 | 2.6 | 6.1 | 0.00 | 0.02 | 0.02 | 72 | 1014.9 |
| 20260905230516 | 82 | 90 | 2.6 | 9.6 | 0.00 | 0.02 | 0.02 | 70 | 1014.8 |
| 20260905225516 | 82 | 23 | 2.6 | 7.0 | 0.00 | 0.02 | 0.02 | 68 | 1014.6 |
| 20260905224516 | 83 | 45 | 3.5 | 7.8 | 0.00 | 0.02 | 0.02 | 66 | 1014.5 |
| 20260905223517 | 83 | 45 | 3.5 | 8.7 | 0.00 | 0.02 | 0.02 | 68 | 1014.4 |
| 20260905222517 | 83 | 0 | 2.6 | 4.3 | 0.00 | 0.02 | 0.02 | 67 | 1014.5 |
| 20260905221537 | 84 | 45 | 2.6 | 6.1 | 0.00 | 0.02 | 0.02 | 66 | 1014.4 |
| 20260905220516 | 83 | 23 | 1.7 | 3.5 | 0.00 | 0.02 | 0.02 | 68 | 1014.4 |
| 20260905215516 | 83 | 90 | 2.6 | 7.0 | 0.00 | 0.02 | 0.02 | 68 | 1014.3 |
| 20260905214517 | 84 | 23 | 3.5 | 7.8 | 0.00 | 0.02 | 0.02 | 67 | 1014.5 |
| 20260905213516 | 83 | 45 | 3.5 | 8.7 | 0.00 | 0.02 | 0.02 | 70 | 1014.5 |
| 20260905212516 | 82 | 23 | 1.7 | 3.5 | 0.00 | 0.02 | 0.02 | 71 | 1014.5 |
| 20260905211516 | 83 | 45 | 1.7 | 6.1 | 0.00 | 0.02 | 0.02 | 70 | 1014.6 |
| 20260905210516 | 83 | 0 | 2.6 | 7.0 | 0.00 | 0.02 | 0.02 | 70 | 1014.5 |
| 20260905205516 | 82 | 23 | 2.6 | 7.0 | 0.00 | 0.02 | 0.02 | 72 | 1014.7 |
| 20260905204516 | 82 | 23 | 3.5 | 7.0 | 0.00 | 0.02 | 0.02 | 71 | 1014.8 |
| 20260905203516 | 82 | 23 | 2.6 | 7.0 | 0.00 | 0.02 | 0.02 | 72 | 1015.0 |
| 20260905202521 | 82 | 23 | 3.5 | 8.7 | 0.00 | 0.02 | 0.02 | 73 | 1014.9 |
| 20260905201516 | 82 | 90 | 2.6 | 5.2 | 0.00 | 0.02 | 0.02 | 72 | 1014.9 |
| 20260905200516 | 82 | 45 | 3.5 | 7.8 | 0.00 | 0.02 | 0.02 | 72 | 1015.0 |
| 20260905195520 | 82 | 45 | 3.5 | 7.8 | 0.00 | 0.02 | 0.02 | 71 | 1015.0 |
| 20260905194516 | 83 | 0 | 3.5 | 8.7 | 0.00 | 0.02 | 0.02 | 71 | 1014.9 |
| 20260905193516 | 84 | 0 | 3.5 | 8.7 | 0.00 | 0.02 | 0.02 | 70 | 1014.8 |
| 20260905192516 | 83 | 23 | 4.3 | 9.6 | 0.00 | 0.02 | 0.02 | 69 | 1014.7 |
| 20260905191537 | 84 | 23 | 2.6 | 6.1 | 0.00 | 0.02 | 0.02 | 68 | 1014.8 |
| 20260905190516 | 85 | 45 | 3.5 | 10.4 | 0.00 | 0.02 | 0.02 | 68 | 1014.9 |
| 20260905185518 | 85 | 23 | 4.3 | 9.6 | 0.00 | 0.02 | 0.02 | 69 | 1014.9 |
| 20260905184518 | 85 | 23 | 4.3 | 8.7 | 0.00 | 0.02 | 0.02 | 68 | 1014.9 |
| 20260905183516 | 85 | 23 | 3.5 | 6.1 | 0.00 | 0.02 | 0.02 | 71 | 1015.0 |
| 20260905182516 | 85 | 45 | 3.5 | 7.0 | 0.00 | 0.02 | 0.02 | 70 | 1014.9 |
| 20260905181516 | 84 | 338 | 3.5 | 7.8 | 0.00 | 0.02 | 0.02 | 70 | 1015.0 |
| 20260905180516 | 85 | 23 | 3.5 | 8.7 | 0.00 | 0.02 | 0.02 | 70 | 1014.9 |
| 20260905175516 | 85 | 68 | 1.7 | 3.5 | 0.00 | 0.02 | 0.02 | 71 | 1014.9 |
| 20260905174516 | 84 | 45 | 1.7 | 4.3 | 0.00 | 0.02 | 0.02 | 72 | 1014.8 |
| 20260905173516 | 84 | 0 | 2.6 | 7.0 | 0.00 | 0.02 | 0.02 | 71 | 1014.9 |
| 20260905172517 | 85 | 23 | 2.6 | 4.3 | 0.00 | 0.02 | 0.02 | 69 | 1014.9 |
| 20260905171516 | 85 | 45 | 2.6 | 7.8 | 0.00 | 0.02 | 0.02 | 71 | 1015.0 |
| 20260905170536 | 85 | 45 | 2.6 | 7.0 | 0.00 | 0.02 | 0.02 | 72 | 1015.1 |
| 20260905165516 | 85 | 338 | 2.6 | 7.0 | 0.00 | 0.02 | 0.02 | 70 | 1015.1 |
| 20260905164516 | 85 | 23 | 1.7 | 7.0 | 0.00 | 0.02 | 0.02 | 74 | 1015.2 |
| 20260905163516 | 84 | 90 | 2.6 | 7.8 | 0.00 | 0.02 | 0.02 | 74 | 1015.2 |
| 20260905162516 | 84 | 0 | 2.6 | 7.0 | 0.00 | 0.02 | 0.02 | 74 | 1015.1 |
| 20260905161516 | 83 | 45 | 3.5 | 7.8 | 0.00 | 0.02 | 0.02 | 74 | 1015.2 |
| 20260905160516 | 83 | 45 | 2.6 | 5.2 | 0.00 | 0.02 | 0.02 | 74 | 1015.2 |
| 20260905155516 | 83 | 23 | 2.6 | 7.0 | 0.00 | 0.02 | 0.02 | 74 | 1015.1 |
| 20260905154516 | 83 | 23 | 3.5 | 7.0 | 0.00 | 0.02 | 0.02 | 75 | 1015.0 |
| 20260905153536 | 82 | 338 | 1.7 | 4.3 | 0.00 | 0.02 | 0.02 | 78 | 1015.0 |
| 20260905152516 | 81 | 45 | 2.6 | 6.1 | 0.00 | 0.02 | 0.02 | 78 | 1014.9 |
| 20260905151516 | 81 | 338 | 1.7 | 7.0 | 0.00 | 0.02 | 0.02 | 79 | 1014.8 |
| 20260905150517 | 80 | 45 | 1.7 | 4.3 | 0.00 | 0.02 | 0.02 | 82 | 1014.7 |
| 20260905145516 | 79 | 45 | 2.6 | 6.1 | 0.00 | 0.02 | 0.02 | 84 | 1014.6 |
| 20260905144516 | 78 | 23 | 3.5 | 7.0 | 0.00 | 0.02 | 0.02 | 84 | 1014.5 |
| 20260905143517 | 78 | 90 | 2.6 | 6.1 | 0.00 | 0.02 | 0.02 | 86 | 1014.6 |
| 20260905142516 | 77 | 23 | 1.7 | 5.2 | 0.00 | 0.02 | 0.02 | 89 | 1014.5 |
| 20260905141516 | 77 | 23 | 3.5 | 8.7 | 0.00 | 0.02 | 0.02 | 88 | 1014.5 |
| 20260905140516 | 77 | 45 | 2.6 | 7.0 | 0.00 | 0.02 | 0.02 | 87 | 1014.4 |
| 20260905135516 | 78 | 23 | 2.6 | 5.2 | 0.00 | 0.02 | 0.02 | 86 | 1014.2 |
| 20260905134517 | 80 | 45 | 2.6 | 7.8 | 0.00 | 0.02 | 0.02 | 84 | 1014.2 |
| 20260905133516 | 80 | 45 | 1.7 | 4.3 | 0.00 | 0.02 | 0.02 | 85 | 1014.2 |
| 20260905132516 | 80 | 338 | 2.6 | 5.2 | 0.00 | 0.02 | 0.02 | 84 | 1014.3 |
| 20260905131516 | 79 | 23 | 1.7 | 4.3 | 0.00 | 0.02 | 0.02 | 86 | 1014.6 |
| 20260905130536 | 79 | 23 | 1.7 | 3.5 | 0.00 | 0.02 | 0.02 | 87 | 1014.1 |
| 20260905125536 | 78 | 23 | 1.7 | 7.0 | 0.00 | 0.02 | 0.02 | 88 | 1013.9 |
| 20260905124516 | 77 | 0 | 0.9 | 1.7 | 0.00 | 0.02 | 0.02 | 91 | 1013.8 |